Janesville, WI

2:31 AM CDT on March 26, 2017 (GMT -0500)
Rock County

Weather History for KJVL - November, 2012

Change the Weather History Date:

Tuesday, November 20, 2012

  Actual Average Record
Temperature  
Mean Temperature 47 °F -  
Max Temperature 57 °F 45 °F 64 °F (2003)
Min Temperature 37 °F 29 °F 10 °F (2014)
Degree Days  
Heating Degree Days 18    
Moisture  
Dew Point 40 °F    
Average Humidity 84    
Maximum Humidity 93    
Minimum Humidity 59    
Precipitation  
Precipitation 0.00 in - - ()
Sea Level Pressure  
Sea Level Pressure 30.12 in    
Wind  
Wind Speed 1 mph (NW)    
Max Wind Speed 8 mph    
Max Gust Speed -    
Visibility 4 miles    
Events Fog    
Averages and records for this station are not official NWS values.
T = Trace of Precipitation, MM = Missing Value Source: NWS Daily Summary

Daily Weather History Graph

Daily Weather History Graph

Search for Another Location

Airport or City:

Trip Planner

Search our weather history database for the weather conditions in past years. The results will help you decide how hot, cold, wet, or windy it might be!

Date:

Astronomy

Nov. 20, 2012 Rise Set
Actual Time 6:54 AM CST 4:29 PM CST
Civil Twilight 6:23 AM CST 4:59 PM CST
Nautical Twilight 5:49 AM CST 5:34 PM CST
Astronomical Twilight 5:15 AM CST 6:07 PM CST
Moon 12:24 PM CST (11/20) No Moon Set
Length of Visible Light 10h 36m
Length of Day
9h 34m
First Quarter, 51% of the Moon is Illuminated
Nov 20
First Quarter
Nov 28
Full
Dec 6
Last Quarter
Dec 13
New
Dec 19
First Quarter

Hourly Weather History & Observations

Time (CST) Temp. Windchill Dew Point Humidity Pressure Visibility Wind Dir Wind Speed Gust Speed Precip Events Conditions
12:15 AM 46.4 °F - 41.0 °F 81% 30.08 in 7.0 mi Calm Calm - N/A   Overcast
12:35 AM 46.4 °F - 41.0 °F 81% 30.07 in 7.0 mi Calm Calm - N/A   Overcast
12:55 AM 46.4 °F - 41.0 °F 81% 30.07 in 7.0 mi Calm Calm - N/A   Overcast
1:15 AM 46.4 °F - 41.0 °F 81% 30.07 in 7.0 mi Calm Calm - N/A   Overcast
1:35 AM 46.4 °F - 41.0 °F 81% 30.07 in 7.0 mi Calm Calm - N/A   Overcast
2:35 AM 46.4 °F - 41.0 °F 81% 30.07 in 7.0 mi Calm Calm - N/A   Overcast
5:45 AM 46.4 °F - 42.8 °F 87% 30.08 in 5.0 mi Calm Calm - N/A   Haze
7:45 AM 44.6 °F - 42.8 °F 93% 30.10 in 3.0 mi Calm Calm - N/A   Scattered Clouds
8:45 AM 48.2 °F - 42.8 °F 82% 30.10 in 3.0 mi Calm Calm - N/A   Haze
9:45 AM 51.8 °F - 44.6 °F 76% 30.10 in 3.0 mi North 5.8 mph - N/A   Haze
10:45 AM 53.6 °F - 44.6 °F 72% 30.10 in 5.0 mi Calm Calm - N/A   Haze
1:45 PM 57.2 °F - 42.8 °F 59% 30.08 in 8.0 mi NW 8.1 mph - N/A   Scattered Clouds
3:45 PM 57.2 °F - 42.8 °F 59% 30.10 in 8.0 mi NW 5.8 mph - N/A   Clear
4:45 PM 51.8 °F - 42.8 °F 71% 30.11 in 7.0 mi NW 5.8 mph - N/A   Clear
5:45 PM 46.4 °F - 39.2 °F 76% 30.13 in 7.0 mi Calm Calm - N/A   Clear
6:50 PM 42.8 °F - 39.2 °F 87% 30.14 in 7.0 mi Calm Calm - N/A   Clear
7:45 PM 42.8 °F - 39.2 °F 87% 30.15 in 10.0 mi Calm Calm - N/A   Clear
8:15 PM 39.2 °F - 37.4 °F 93% 30.15 in 2.0 mi Calm Calm - N/A   Clear
8:35 PM 41.0 °F - 37.4 °F 87% 30.16 in 2.0 mi Calm Calm - N/A   Clear
8:45 PM 42.8 °F 39.3 °F 39.2 °F 87% 30.16 in 2.0 mi WNW 5.8 mph - N/A   Clear
8:55 PM 41.0 °F - 39.2 °F 93% 30.16 in 1.5 mi Calm Calm - N/A   Mist
9:15 PM 41.0 °F - 37.4 °F 87% 30.16 in 0.2 mi Calm Calm - N/A Fog Fog
9:35 PM 41.0 °F - 37.4 °F 87% 30.15 in 0.2 mi Calm Calm - N/A Fog Fog
9:55 PM 37.4 °F 34.9 °F 35.6 °F 93% 30.15 in 0.2 mi WSW 3.5 mph - N/A Fog Fog
10:15 PM 39.2 °F - 37.4 °F 93% 30.16 in 0.2 mi Calm Calm - N/A Fog Fog
10:35 PM 39.2 °F - 35.6 °F 87% 30.16 in 0.2 mi Calm Calm - N/A Fog Fog
10:55 PM 37.4 °F - 35.6 °F 93% 30.17 in 0.2 mi Calm Calm - N/A Fog Fog
11:15 PM 37.4 °F - 35.6 °F 93% 30.17 in 0.2 mi Calm Calm - N/A Fog Fog
11:35 PM 37.4 °F - 35.6 °F 93% 30.17 in 0.2 mi Calm Calm - N/A Fog Fog
11:55 PM 37.4 °F - 35.6 °F 93% 30.17 in 0.2 mi Calm Calm - N/A Fog Fog